TimePDT,TemperatureF,Dew PointF,Humidity,Sea Level PressureIn,VisibilityMPH,Wind Direction,Wind SpeedMPH,Gust SpeedMPH,PrecipitationIn,Events,Conditions,WindDirDegrees,DateUTC
12:53 AM,30.0,21.9,72,30.19,10.0,ESE,8.1,-,N/A,,Clear,110,2014-03-19 07:53:00
1:53 AM,28.0,21.0,75,30.19,10.0,West,4.6,-,N/A,,Clear,270,2014-03-19 08:53:00
2:53 AM,28.0,21.9,78,30.19,10.0,SSW,4.6,-,N/A,,Clear,200,2014-03-19 09:53:00
3:53 AM,27.0,21.9,81,30.17,10.0,ESE,8.1,-,N/A,,Clear,120,2014-03-19 10:53:00
4:53 AM,30.0,21.0,69,30.16,10.0,ESE,4.6,-,N/A,,Clear,110,2014-03-19 11:53:00
5:53 AM,26.1,21.9,84,30.17,10.0,SSW,4.6,-,N/A,,Clear,200,2014-03-19 12:53:00
6:53 AM,25.0,21.0,85,30.19,10.0,Calm,Calm,-,N/A,,Clear,0,2014-03-19 13:53:00
7:53 AM,27.0,23.0,85,30.19,10.0,East,3.5,-,N/A,,Clear,100,2014-03-19 14:53:00
8:53 AM,36.0,24.1,62,30.17,10.0,Calm,Calm,-,N/A,,Clear,0,2014-03-19 15:53:00
9:53 AM,44.1,19.9,38,30.14,10.0,SE,9.2,18.4,N/A,,Clear,130,2014-03-19 16:53:00
10:53 AM,46.9,19.0,33,30.12,10.0,SE,12.7,-,N/A,,Clear,140,2014-03-19 17:53:00
11:53 AM,51.1,19.0,28,30.10,10.0,SSE,15.0,21.9,N/A,,Clear,150,2014-03-19 18:53:00
12:53 PM,51.1,19.9,29,30.06,10.0,SE,13.8,25.3,N/A,,Clear,130,2014-03-19 19:53:00
1:53 PM,54.0,21.9,29,30.03,10.0,SE,17.3,27.6,N/A,,Clear,130,2014-03-19 20:53:00
2:53 PM,55.0,23.0,29,30.01,10.0,SE,18.4,-,N/A,,Clear,130,2014-03-19 21:53:00
3:53 PM,57.0,21.9,26,29.98,10.0,SE,18.4,25.3,N/A,,Clear,140,2014-03-19 22:53:00
4:53 PM,55.9,21.9,27,29.97,10.0,Variable,5.8,17.3,N/A,,Partly Cloudy,0,2014-03-19 23:53:00
5:53 PM,52.0,23.0,32,29.99,10.0,NNE,6.9,-,N/A,,Mostly Cloudy,20,2014-03-20 00:53:00
6:53 PM,46.0,25.0,44,30.00,10.0,NE,3.5,-,N/A,,Clear,50,2014-03-20 01:53:00
7:53 PM,44.1,28.9,55,30.03,10.0,NNW,12.7,-,N/A,,Clear,340,2014-03-20 02:53:00
8:53 PM,42.1,32.0,67,30.03,10.0,NNW,11.5,-,N/A,,Clear,340,2014-03-20 03:53:00
9:53 PM,39.9,30.9,70,30.04,10.0,Calm,Calm,-,N/A,,Mostly Cloudy,0,2014-03-20 04:53:00
10:53 PM,42.1,30.0,62,30.04,10.0,WNW,8.1,-,N/A,,Overcast,300,2014-03-20 05:53:00
11:53 PM,37.9,30.0,73,30.05,10.0,NW,4.6,-,N/A,,Partly Cloudy,310,2014-03-20 06:53:00